GW3154 Weather Reports


time (UTC)temp
F
wind
direction
speed
knots
gust
knots
rain 1hr
in
rain 24hr
in
rain mn
in
humidity
%
barometer
mb
20260505230144 66 263 0.9 0.9 0.00 0.00 0.00 71 1017.3
20260505224644 64 70 0.0 0.9 0.00 0.00 0.00 72 1017.4
20260505223141 65 63 0.0 0.0 0.00 0.00 0.00 69 1017.5
20260505221637 66 125 0.0 0.0 0.00 0.00 0.00 70 1017.4
20260505220134 65 281 0.9 0.9 0.00 0.00 0.00 71 1017.7
20260505214633 66 77 0.0 0.0 0.00 0.00 0.00 70 1017.7
20260505213130 66 287 0.0 0.9 0.00 0.00 0.00 70 1017.8
20260505211626 64 295 0.0 0.0 0.00 0.00 0.00 71 1017.7
20260505210123 64 89 0.9 1.7 0.00 0.00 0.00 73 1017.8
20260505204621 64 181 0.9 1.7 0.00 0.00 0.00 73 1017.8
20260505203118 63 207 0.9 0.9 0.00 0.00 0.00 74 1017.9
20260505201613 64 257 0.0 0.0 0.00 0.00 0.00 71 1018.0
20260505200111 63 7 0.0 0.0 0.00 0.00 0.00 75 1018.0
20260505194608 63 14 0.9 1.7 0.00 0.00 0.00 72 1018.2
20260505193103 63 258 0.0 0.0 0.00 0.00 0.00 73 1018.0
20260505191603 63 266 0.0 0.9 0.00 0.00 0.00 75 1018.1
20260505190103 62 277 0.9 0.9 0.00 0.00 0.00 74 1018.1
20260505184559 62 188 0.9 0.9 0.00 0.00 0.00 75 1018.2
20260505183056 60 142 0.0 0.0 0.00 0.00 0.00 78 1018.1
20260505181552 60 170 0.0 0.9 0.00 0.00 0.00 79 1018.1
20260505180049 60 194 0.0 0.0 0.00 0.00 0.00 80 1018.1
20260505174549 59 194 0.0 0.0 0.00 0.00 0.00 80 1018.0
20260505173044 59 178 0.9 0.9 0.00 0.00 0.00 80 1017.9
20260505171544 59 327 0.0 0.0 0.00 0.00 0.00 80 1017.8
20260505170041 59 218 0.0 0.0 0.00 0.00 0.00 80 1017.9
20260505164540 57 90 0.0 0.0 0.00 0.00 0.00 83 1017.9
20260505163039 57 73 0.0 0.0 0.00 0.00 0.00 85 1017.9
20260505161537 57 47 0.0 0.0 0.00 0.00 0.00 84 1017.6
20260505153031 56 186 0.0 0.0 0.00 0.00 0.00 86 1017.7
20260505151530 56 216 0.0 0.0 0.00 0.00 0.00 88 1017.7
20260505124457 54 267 0.0 0.0 0.00 0.00 0.00 91 1016.6
20260505122958 54 286 0.0 0.0 0.00 0.00 0.00 91 1016.5
20260505121454 54 204 0.0 0.0 0.00 0.00 0.00 91 1016.5
20260505115952 54 203 0.0 0.0 0.00 0.00 0.00 91 1016.3
20260505114448 54 204 0.0 0.0 0.00 0.00 0.00 91 1016.4
20260505112943 54 239 0.9 0.9 0.00 0.00 0.00 91 1016.3
20260505111443 54 187 0.0 0.0 0.00 0.00 0.00 90 1016.3
20260505101432 54 180 0.9 0.9 0.00 0.00 0.00 91 1016.0
20260505095932 54 198 0.0 0.0 0.00 0.00 0.00 92 1016.0
20260505094429 54 178 0.9 0.9 0.00 0.00 0.00 92 1015.9
20260505092925 54 170 0.9 1.7 0.00 0.00 0.00 91 1015.8
20260505091423 54 196 0.0 0.9 0.00 0.00 0.00 92 1015.7
20260505085922 54 186 0.0 0.9 0.00 0.00 0.00 91 1015.6
20260505084421 54 187 0.0 0.9 0.00 0.00 0.00 92 1015.8
20260505082918 53 182 0.9 0.9 0.00 0.00 0.00 92 1015.6
20260505081414 53 171 0.9 0.9 0.00 0.00 0.00 92 1015.5
20260505075914 53 221 0.0 0.0 0.00 0.00 0.00 93 1015.4
20260505074411 52 225 0.0 0.0 0.00 0.00 0.00 93 1015.6
20260505072909 52 218 0.0 0.0 0.00 0.00 0.00 94 1015.3
20260505071404 52 178 0.9 1.7 0.00 0.00 0.00 94 1015.4
20260505065859 52 178 0.9 0.9 0.00 0.00 0.00 93 1015.2
20260505064356 53 198 0.0 0.9 0.00 0.00 0.00 92 1015.1
20260505062852 53 237 0.0 0.0 0.00 0.00 0.00 90 1014.8
20260505061350 54 180 0.0 0.0 0.00 0.00 0.00 88 1014.8
20260505055846 55 175 1.7 1.7 0.00 0.00 0.00 87 1015.0
20260505054342 55 182 0.0 0.9 0.00 0.00 0.00 87 1014.9
20260505052840 56 171 0.9 0.9 0.00 0.00 0.00 86 1014.9
20260505051337 56 177 1.7 2.6 0.00 0.00 0.00 85 1014.8
20260505041330 59 187 0.0 0.0 0.00 0.00 0.00 83 1014.0
20260505035827 59 245 0.9 0.9 0.00 0.00 0.00 82 1013.8
20260505034328 60 256 0.9 0.9 0.00 0.00 0.00 81 1013.6
20260505032826 61 219 0.9 0.9 0.00 0.00 0.00 80 1013.2
20260505031321 62 176 0.0 0.9 0.00 0.00 0.00 78 1013.1
20260505025821 64 212 0.9 0.9 0.00 0.00 0.00 75 1012.7
20260505024321 66 209 0.0 0.0 0.00 0.00 0.00 72 1012.5
20260505022818 67 231 0.9 0.9 0.00 0.00 0.00 70 1012.3
20260505021314 68 214 0.9 1.7 0.00 0.00 0.00 69 1012.3
20260505015809 69 238 0.9 0.9 0.00 0.00 0.00 67 1012.3
20260505014307 71 239 0.9 1.7 0.00 0.00 0.00 67 1012.4
20260505012804 71 163 0.0 0.9 0.00 0.00 0.00 66 1012.2
20260505011300 75 269 0.0 0.0 0.00 0.00 0.00 62 1012.1
20260505005800 75 184 0.0 0.0 0.00 0.00 0.00 61 1012.2
20260505004256 74 173 0.0 0.0 0.00 0.00 0.00 63 1012.4
20260505002753 74 241 1.7 2.6 0.00 0.00 0.00 63 1012.4
20260505001251 75 177 5.2 7.8 0.00 0.00 0.00 61 1012.6
20260504235748 74 196 0.9 0.9 0.00 0.00 0.00 65 1012.6
20260504234245 73 179 2.6 2.6 0.00 0.00 0.00 64 1012.9
20260504232746 73 173 0.9 0.9 0.00 0.00 0.00 64 1013.0
20260504231242 72 160 2.6 4.3 0.00 0.00 0.00 66 1013.0